Location: Gebenbach
(49.5378°N, 11.8735°E)
Time: 12:06:14
(UTC+00:00)

ARGOS - Pass Details

Date: 29 October 2020
Orbit: 820 x 835 km, 98.4° (Epoch: 25 November)

Event Time Altitude Azimuth Distance (km) Brightness Sun altitude
Exits shadow 18:17:20 30° 159° (SSE) 1,447 4.2 -23.6°
Maximum altitude 18:20:06 84° 74° (ENE) 847 3.0 -24.0°
Drops below altitude 10° 18:25:35 10° 347° (NNW) 2,459 5.8 -24.9°
Sets 18:27:57 0° 347° (NNW) 3,397 6.6 -25.3°
